Вернуться в каталог

TITAN 3C TRANSTAGE DEB

LostHEO
NORAD 26763·DEBRIS·🇺🇸 United States

Запущен Dec 21, 1965 с Cape Canaveral Space Force Station

Loading…

Ближайшие Пролёты (ближайшие 24 часа)

TLE

УстаревшееSource: Space-Track

Эпоха: Jun 21, 2026, 07:02 UTC

1 26763U 65108AS  26172.29369191  .00000009  00000-0  19052-3 0  9991
2 26763  26.1132 141.3072 6721182 202.2487 350.7013  2.74437773252384

Отслеживайте TITAN 3C TRANSTAGE DEB в реальном времени с AllMySat

Download on the App Store